Year,Month,Day,Hour,Minute,Value (Times are PST for temperature in C)
2021,08,05,00,00,18.00
2021,08,05,00,01,18.00
2021,08,05,00,02,18.00
2021,08,05,00,03,18.00
2021,08,05,00,04,18.00
2021,08,05,00,05,18.00
2021,08,05,00,06,18.00
2021,08,05,00,07,18.00
2021,08,05,00,08,18.00
2021,08,05,00,09,18.00
2021,08,05,00,10,18.00
2021,08,05,00,11,17.90
2021,08,05,00,12,17.90
2021,08,05,00,13,17.90
2021,08,05,00,14,17.90
2021,08,05,00,15,17.90
2021,08,05,00,16,17.90
2021,08,05,00,17,17.90
2021,08,05,00,18,17.90
2021,08,05,00,19,17.90
2021,08,05,00,20,17.90
2021,08,05,00,21,17.90
2021,08,05,00,22,17.90
2021,08,05,00,23,17.90
2021,08,05,00,24,17.90
2021,08,05,00,25,17.90
2021,08,05,00,26,17.90
2021,08,05,00,27,17.90
2021,08,05,00,28,17.90
2021,08,05,00,29,17.90
2021,08,05,00,30,17.90
2021,08,05,00,31,17.80
2021,08,05,00,32,17.80
2021,08,05,00,33,17.80
2021,08,05,00,34,17.80
2021,08,05,00,35,17.80
2021,08,05,00,36,17.80
2021,08,05,00,37,17.80
2021,08,05,00,38,17.80
2021,08,05,00,39,17.80
2021,08,05,00,40,17.80
2021,08,05,00,41,17.80
2021,08,05,00,42,17.80
2021,08,05,00,43,17.80
2021,08,05,00,44,17.80
2021,08,05,00,45,17.80
2021,08,05,00,46,17.80
2021,08,05,00,47,17.80
2021,08,05,00,48,17.80
2021,08,05,00,49,17.80
2021,08,05,00,50,17.80
2021,08,05,00,51,17.80
2021,08,05,00,52,17.80
2021,08,05,00,53,17.80
2021,08,05,00,54,17.80
2021,08,05,00,55,17.80
2021,08,05,00,56,17.80
2021,08,05,00,57,17.80
2021,08,05,00,58,17.80
2021,08,05,00,59,17.80
2021,08,05,01,00,17.80
2021,08,05,01,01,17.80
2021,08,05,01,02,17.80
2021,08,05,01,03,17.80
2021,08,05,01,04,17.80
2021,08,05,01,05,17.80
2021,08,05,01,06,17.80
2021,08,05,01,07,17.80
2021,08,05,01,08,17.80
2021,08,05,01,09,17.80
2021,08,05,01,10,17.80
2021,08,05,01,11,17.80
2021,08,05,01,12,17.80
2021,08,05,01,13,17.80
2021,08,05,01,14,17.80
2021,08,05,01,15,17.80
2021,08,05,01,16,17.80
2021,08,05,01,17,17.80
2021,08,05,01,18,17.80
2021,08,05,01,19,17.80
2021,08,05,01,20,17.80
2021,08,05,01,21,17.80
2021,08,05,01,22,17.80
2021,08,05,01,23,17.80
2021,08,05,01,24,17.80
2021,08,05,01,25,17.80
2021,08,05,01,26,17.80
2021,08,05,01,27,17.70
2021,08,05,01,28,17.70
2021,08,05,01,29,17.70
2021,08,05,01,30,17.80
2021,08,05,01,31,17.80
2021,08,05,01,32,17.80
2021,08,05,01,33,17.80
2021,08,05,01,34,17.80
2021,08,05,01,35,17.80
2021,08,05,01,36,17.80
2021,08,05,01,37,17.80
2021,08,05,01,38,17.80
2021,08,05,01,39,17.80
2021,08,05,01,40,17.80
2021,08,05,01,41,17.80
2021,08,05,01,42,17.80
2021,08,05,01,43,17.80
2021,08,05,01,44,17.80
2021,08,05,01,45,17.80
2021,08,05,01,46,17.80
2021,08,05,01,47,17.80
2021,08,05,01,48,17.80
2021,08,05,01,49,17.80
2021,08,05,01,50,17.80
2021,08,05,01,51,17.80
2021,08,05,01,52,17.80
2021,08,05,01,53,17.80
2021,08,05,01,54,17.70
2021,08,05,01,55,17.70
2021,08,05,01,56,17.80
2021,08,05,01,57,17.80
2021,08,05,01,58,17.80
2021,08,05,01,59,17.80
2021,08,05,02,00,17.80
2021,08,05,02,01,17.80
2021,08,05,02,02,17.80
2021,08,05,02,03,17.80
2021,08,05,02,04,17.80
2021,08,05,02,05,17.80
2021,08,05,02,06,17.80
2021,08,05,02,07,17.80
2021,08,05,02,08,17.80
2021,08,05,02,09,17.80
2021,08,05,02,10,17.80
2021,08,05,02,11,17.80
2021,08,05,02,12,17.80
2021,08,05,02,13,17.80
2021,08,05,02,14,17.80
2021,08,05,02,15,17.90
2021,08,05,02,16,17.90
2021,08,05,02,17,17.90
2021,08,05,02,18,17.90
2021,08,05,02,19,17.90
2021,08,05,02,20,17.90
2021,08,05,02,21,17.90
2021,08,05,02,22,17.90
2021,08,05,02,23,17.90
2021,08,05,02,24,17.90
2021,08,05,02,25,17.90
2021,08,05,02,26,17.90
2021,08,05,02,27,17.90
2021,08,05,02,28,17.90
2021,08,05,02,29,17.90
2021,08,05,02,30,17.90
2021,08,05,02,31,17.90
2021,08,05,02,32,17.90
2021,08,05,02,33,17.90
2021,08,05,02,34,17.90
2021,08,05,02,35,17.90
2021,08,05,02,36,17.90
2021,08,05,02,37,17.90
2021,08,05,02,38,17.90
2021,08,05,02,39,17.90
2021,08,05,02,40,17.90
2021,08,05,02,41,17.90
2021,08,05,02,42,17.90
2021,08,05,02,43,18.00
2021,08,05,02,44,18.00
2021,08,05,02,45,18.00
2021,08,05,02,46,18.00
2021,08,05,02,47,18.00
2021,08,05,02,48,18.00
2021,08,05,02,49,18.00
2021,08,05,02,50,18.10
2021,08,05,02,51,18.10
2021,08,05,02,52,18.10
2021,08,05,02,53,18.10
2021,08,05,02,54,18.10
2021,08,05,02,55,18.20
2021,08,05,02,56,18.20
2021,08,05,02,57,18.20
2021,08,05,02,58,18.20
2021,08,05,02,59,18.20
2021,08,05,03,00,18.20
2021,08,05,03,01,18.30
2021,08,05,03,02,18.30
2021,08,05,03,03,18.30
2021,08,05,03,04,18.30
2021,08,05,03,05,18.30
2021,08,05,03,06,18.30
2021,08,05,03,07,18.30
2021,08,05,03,08,18.30
2021,08,05,03,09,18.30
2021,08,05,03,10,18.30
2021,08,05,03,11,18.30
2021,08,05,03,12,18.30
2021,08,05,03,13,18.30
2021,08,05,03,14,18.30
2021,08,05,03,15,18.20
2021,08,05,03,16,18.20
2021,08,05,03,17,18.20
2021,08,05,03,18,18.20
2021,08,05,03,19,18.20
2021,08,05,03,20,18.20
2021,08,05,03,21,18.20
2021,08,05,03,22,18.20
2021,08,05,03,23,18.20
2021,08,05,03,24,18.20
2021,08,05,03,25,18.20
2021,08,05,03,26,18.20
2021,08,05,03,27,18.20
2021,08,05,03,28,18.20
2021,08,05,03,29,18.20
2021,08,05,03,30,18.20
2021,08,05,03,31,18.20
2021,08,05,03,32,18.20
2021,08,05,03,33,18.20
2021,08,05,03,34,18.20
2021,08,05,03,35,18.20
2021,08,05,03,36,18.10
2021,08,05,03,37,18.10
2021,08,05,03,38,18.10
2021,08,05,03,39,18.10
2021,08,05,03,40,18.10
2021,08,05,03,41,18.10
2021,08,05,03,42,18.10
2021,08,05,03,43,18.10
2021,08,05,03,44,18.00
2021,08,05,03,45,18.00
2021,08,05,03,46,18.00
2021,08,05,03,47,18.00
2021,08,05,03,48,17.90
2021,08,05,03,49,17.90
2021,08,05,03,50,17.90
2021,08,05,03,51,17.90
2021,08,05,03,52,17.90
2021,08,05,03,53,17.80
2021,08,05,03,54,17.80
2021,08,05,03,55,17.80
2021,08,05,03,56,17.80
2021,08,05,03,57,17.70
2021,08,05,03,58,17.70
2021,08,05,03,59,17.70
2021,08,05,04,00,17.70
2021,08,05,04,01,17.70
2021,08,05,04,02,17.60
2021,08,05,04,03,17.60
2021,08,05,04,04,17.60
2021,08,05,04,05,17.60
2021,08,05,04,06,17.60
2021,08,05,04,07,17.50
2021,08,05,04,08,17.50
2021,08,05,04,09,17.50
2021,08,05,04,10,17.50
2021,08,05,04,11,17.40
2021,08,05,04,12,17.40
2021,08,05,04,13,17.40
2021,08,05,04,14,17.40
2021,08,05,04,15,17.40
2021,08,05,04,16,17.40
2021,08,05,04,17,17.30
2021,08,05,04,18,17.30
2021,08,05,04,19,17.30
2021,08,05,04,20,17.30
2021,08,05,04,21,17.30
2021,08,05,04,22,17.30
2021,08,05,04,23,17.30
2021,08,05,04,24,17.30
2021,08,05,04,25,17.30
2021,08,05,04,26,17.20
2021,08,05,04,27,17.20
2021,08,05,04,28,17.20
2021,08,05,04,29,17.20
2021,08,05,04,30,17.20
2021,08,05,04,31,17.20
2021,08,05,04,32,17.20
2021,08,05,04,33,17.20
2021,08,05,04,34,17.20
2021,08,05,04,35,17.20
2021,08,05,04,36,17.20
2021,08,05,04,37,17.20
2021,08,05,04,38,17.20
2021,08,05,04,39,17.20
2021,08,05,04,40,17.20
2021,08,05,04,41,17.20
2021,08,05,04,42,17.20
2021,08,05,04,43,17.20
2021,08,05,04,44,17.20
2021,08,05,04,45,17.20
2021,08,05,04,46,17.20
2021,08,05,04,47,17.20
2021,08,05,04,48,17.10
2021,08,05,04,49,17.10
2021,08,05,04,50,17.10
2021,08,05,04,51,17.10
2021,08,05,04,52,17.10
2021,08,05,04,53,17.10
2021,08,05,04,54,17.10
2021,08,05,04,55,17.10
2021,08,05,04,56,17.10
2021,08,05,04,57,17.10
2021,08,05,04,58,17.10
2021,08,05,04,59,17.10
2021,08,05,05,00,17.10
2021,08,05,05,01,17.10
2021,08,05,05,02,17.00
2021,08,05,05,03,17.00
2021,08,05,05,04,17.00
2021,08,05,05,05,17.00
2021,08,05,05,06,17.00
2021,08,05,05,07,17.00
2021,08,05,05,08,16.90
2021,08,05,05,09,16.90
2021,08,05,05,10,16.90
2021,08,05,05,11,16.90
2021,08,05,05,12,16.90
2021,08,05,05,13,16.90
2021,08,05,05,14,16.90
2021,08,05,05,15,16.90
2021,08,05,05,16,16.80
2021,08,05,05,17,16.80
2021,08,05,05,18,16.80
2021,08,05,05,19,16.80
2021,08,05,05,20,16.80
2021,08,05,05,21,16.80
2021,08,05,05,22,16.80
2021,08,05,05,23,16.80
2021,08,05,05,24,16.80
2021,08,05,05,25,16.80
2021,08,05,05,26,16.80
2021,08,05,05,27,16.80
2021,08,05,05,28,16.80
2021,08,05,05,29,16.80
2021,08,05,05,30,16.80
2021,08,05,05,31,16.70
2021,08,05,05,32,16.70
2021,08,05,05,33,16.70
2021,08,05,05,34,16.70
2021,08,05,05,35,16.70
2021,08,05,05,36,16.70
2021,08,05,05,37,16.70
2021,08,05,05,38,16.70
2021,08,05,05,39,16.70
2021,08,05,05,40,16.70
2021,08,05,05,41,16.70
2021,08,05,05,42,16.70
2021,08,05,05,43,16.70
2021,08,05,05,44,16.70
2021,08,05,05,45,16.60
2021,08,05,05,46,16.60
2021,08,05,05,47,16.60
2021,08,05,05,48,16.60
2021,08,05,05,49,16.60
2021,08,05,05,50,16.60
2021,08,05,05,51,16.60
2021,08,05,05,52,16.60
2021,08,05,05,53,16.60
2021,08,05,05,54,16.50
2021,08,05,05,55,16.50
2021,08,05,05,56,16.50
2021,08,05,05,57,16.50
2021,08,05,05,58,16.50
2021,08,05,05,59,16.50
2021,08,05,06,00,16.50
2021,08,05,06,01,16.50
2021,08,05,06,02,16.50
2021,08,05,06,03,16.50
2021,08,05,06,04,16.40
2021,08,05,06,05,16.50
2021,08,05,06,06,16.40
2021,08,05,06,07,16.40
2021,08,05,06,08,16.40
2021,08,05,06,09,16.40
2021,08,05,06,10,16.40
2021,08,05,06,11,16.40
2021,08,05,06,12,16.40
2021,08,05,06,13,16.40
2021,08,05,06,14,16.40
2021,08,05,06,15,16.40
2021,08,05,06,16,16.40
2021,08,05,06,17,16.40
2021,08,05,06,18,16.40
2021,08,05,06,19,16.40
2021,08,05,06,20,16.40
2021,08,05,06,21,16.40
2021,08,05,06,22,16.40
2021,08,05,06,23,16.50
2021,08,05,06,24,16.50
2021,08,05,06,25,16.50
2021,08,05,06,26,16.50
2021,08,05,06,27,16.60
2021,08,05,06,28,16.60
2021,08,05,06,29,16.70
2021,08,05,06,30,16.70
2021,08,05,06,31,16.80
2021,08,05,06,32,16.80
2021,08,05,06,33,16.90
2021,08,05,06,34,16.90
2021,08,05,06,35,17.00
2021,08,05,06,36,17.10
2021,08,05,06,37,17.10
2021,08,05,06,38,17.20
2021,08,05,06,39,17.20
2021,08,05,06,40,17.30
2021,08,05,06,41,17.30
2021,08,05,06,42,17.40
2021,08,05,06,43,17.40
2021,08,05,06,44,17.50
2021,08,05,06,45,17.60
2021,08,05,06,46,17.60
2021,08,05,06,47,17.70
2021,08,05,06,48,17.80
2021,08,05,06,49,17.80
2021,08,05,06,50,17.90
2021,08,05,06,51,18.00
2021,08,05,06,52,18.10
2021,08,05,06,53,18.10
2021,08,05,06,54,18.20
2021,08,05,06,55,18.20
2021,08,05,06,56,18.10
2021,08,05,06,57,18.10
2021,08,05,06,58,18.00
2021,08,05,06,59,17.90
2021,08,05,07,00,17.80
2021,08,05,07,01,17.70
2021,08,05,07,02,17.60
2021,08,05,07,03,17.50
2021,08,05,07,04,17.50
2021,08,05,07,05,17.40
2021,08,05,07,06,17.40
2021,08,05,07,07,17.40
2021,08,05,07,08,17.40
2021,08,05,07,09,17.40
2021,08,05,07,10,17.40
2021,08,05,07,11,17.50
2021,08,05,07,12,17.60
2021,08,05,07,13,17.60
2021,08,05,07,14,17.60
2021,08,05,07,15,17.60
2021,08,05,07,16,17.70
2021,08,05,07,17,17.70
2021,08,05,07,18,17.60
2021,08,05,07,19,17.50
2021,08,05,07,20,17.40
2021,08,05,07,21,17.30
2021,08,05,07,22,17.20
2021,08,05,07,23,17.10
2021,08,05,07,24,17.00
2021,08,05,07,25,16.90
2021,08,05,07,26,16.80
2021,08,05,07,27,16.70
2021,08,05,07,28,16.60
2021,08,05,07,29,16.60
2021,08,05,07,30,16.50
2021,08,05,07,31,16.50
2021,08,05,07,32,16.40
2021,08,05,07,33,16.40
2021,08,05,07,34,16.40
2021,08,05,07,35,16.40
2021,08,05,07,36,16.30
2021,08,05,07,37,16.30
2021,08,05,07,38,16.30
2021,08,05,07,39,16.40
2021,08,05,07,40,16.40
2021,08,05,07,41,16.40
2021,08,05,07,42,16.50
2021,08,05,07,43,16.60
2021,08,05,07,44,16.70
2021,08,05,07,45,16.70
2021,08,05,07,46,16.80
2021,08,05,07,47,16.90
2021,08,05,07,48,17.00
2021,08,05,07,49,17.10
2021,08,05,07,50,17.20
2021,08,05,07,51,17.40
2021,08,05,07,52,17.50
2021,08,05,07,53,17.60
2021,08,05,07,54,17.60
2021,08,05,07,55,17.70
2021,08,05,07,56,17.80
2021,08,05,07,57,17.90
2021,08,05,07,58,18.10
2021,08,05,07,59,18.20
2021,08,05,08,00,18.30
2021,08,05,08,01,18.30
2021,08,05,08,02,18.40
2021,08,05,08,03,18.50
2021,08,05,08,04,18.50
2021,08,05,08,05,18.60
2021,08,05,08,06,18.70
2021,08,05,08,07,18.70
2021,08,05,08,08,18.80
2021,08,05,08,09,18.80
2021,08,05,08,10,18.90
2021,08,05,08,11,19.00
2021,08,05,08,12,19.10
2021,08,05,08,13,19.10
2021,08,05,08,14,19.20
2021,08,05,08,15,19.20
2021,08,05,08,16,19.20
2021,08,05,08,17,19.20
2021,08,05,08,18,19.20
2021,08,05,08,19,19.20
2021,08,05,08,20,19.10
2021,08,05,08,21,19.10
2021,08,05,08,22,19.00
2021,08,05,08,23,18.90
2021,08,05,08,24,18.80
2021,08,05,08,25,18.70
2021,08,05,08,26,18.70
2021,08,05,08,27,18.60
2021,08,05,08,28,18.60
2021,08,05,08,29,18.60
2021,08,05,08,30,18.50
2021,08,05,08,31,18.40
2021,08,05,08,32,18.40
2021,08,05,08,33,18.40
2021,08,05,08,34,18.30
2021,08,05,08,35,18.30
2021,08,05,08,36,18.30
2021,08,05,08,37,18.30
2021,08,05,08,38,18.20
2021,08,05,08,39,18.10
2021,08,05,08,40,17.90
2021,08,05,08,41,17.70
2021,08,05,08,42,17.40
2021,08,05,08,43,17.30
2021,08,05,08,44,17.10
2021,08,05,08,45,16.90
2021,08,05,08,46,16.80
2021,08,05,08,47,16.70
2021,08,05,08,48,16.60
2021,08,05,08,49,16.40
2021,08,05,08,50,16.30
2021,08,05,08,51,16.30
2021,08,05,08,52,16.30
2021,08,05,08,53,16.20
2021,08,05,08,54,16.10
2021,08,05,08,55,16.00
2021,08,05,08,56,15.90
2021,08,05,08,57,15.80
2021,08,05,08,58,15.70
2021,08,05,08,59,15.60
2021,08,05,09,00,15.60
2021,08,05,09,01,15.60
2021,08,05,09,02,15.60
2021,08,05,09,03,15.70
2021,08,05,09,04,15.80
2021,08,05,09,05,15.80
2021,08,05,09,06,15.90
2021,08,05,09,07,16.00
2021,08,05,09,08,16.10
2021,08,05,09,09,16.20
2021,08,05,09,10,16.20
2021,08,05,09,11,16.30
2021,08,05,09,12,16.40
2021,08,05,09,13,16.50
2021,08,05,09,14,16.60
2021,08,05,09,15,16.70
2021,08,05,09,16,16.80
2021,08,05,09,17,16.80
2021,08,05,09,18,16.90
2021,08,05,09,19,16.90
2021,08,05,09,20,17.00
2021,08,05,09,21,17.00
2021,08,05,09,22,17.10
2021,08,05,09,23,17.10
2021,08,05,09,24,17.20
2021,08,05,09,25,17.30
2021,08,05,09,26,17.30
2021,08,05,09,27,17.40
2021,08,05,09,28,17.40
2021,08,05,09,29,17.50
2021,08,05,09,30,17.50
2021,08,05,09,31,17.60
2021,08,05,09,32,17.60
2021,08,05,09,33,17.60
2021,08,05,09,34,17.70
2021,08,05,09,35,17.70
2021,08,05,09,36,17.70
2021,08,05,09,37,17.70
2021,08,05,09,38,17.70
2021,08,05,09,39,17.70
2021,08,05,09,40,17.70
2021,08,05,09,41,17.80
2021,08,05,09,42,17.80
2021,08,05,09,43,17.80
2021,08,05,09,44,17.80
2021,08,05,09,45,17.80
2021,08,05,09,46,17.80
2021,08,05,09,47,17.80
2021,08,05,09,48,17.80
2021,08,05,09,49,17.80
2021,08,05,09,50,17.80
2021,08,05,09,51,17.80
2021,08,05,09,52,17.90
2021,08,05,09,53,17.90
2021,08,05,09,54,18.00
2021,08,05,09,55,18.00
2021,08,05,09,56,18.10
2021,08,05,09,57,18.20
2021,08,05,09,58,18.20
2021,08,05,09,59,18.20
2021,08,05,10,00,18.30
2021,08,05,10,01,18.40
2021,08,05,10,02,18.40
2021,08,05,10,03,18.40
2021,08,05,10,04,18.50
2021,08,05,10,05,18.60
2021,08,05,10,06,18.60
2021,08,05,10,07,18.70
2021,08,05,10,08,18.80
2021,08,05,10,09,18.80
2021,08,05,10,10,18.90
2021,08,05,10,11,19.00
2021,08,05,10,12,19.10
2021,08,05,10,13,19.10
2021,08,05,10,14,19.30
2021,08,05,10,15,19.50
2021,08,05,10,16,19.70
2021,08,05,10,17,19.90
2021,08,05,10,18,20.10
2021,08,05,10,19,20.30
2021,08,05,10,20,20.50
2021,08,05,10,21,20.60
2021,08,05,10,22,20.80
2021,08,05,10,23,20.90
2021,08,05,10,24,21.00
2021,08,05,10,25,21.20
2021,08,05,10,26,21.30
2021,08,05,10,27,21.30
2021,08,05,10,28,21.40
2021,08,05,10,29,21.40
2021,08,05,10,30,21.50
2021,08,05,10,31,21.60
2021,08,05,10,32,21.60
2021,08,05,10,33,21.80
2021,08,05,10,34,21.80
2021,08,05,10,35,21.90
2021,08,05,10,36,21.90
2021,08,05,10,37,22.00
2021,08,05,10,38,22.10
2021,08,05,10,39,22.10
2021,08,05,10,40,22.10
2021,08,05,10,41,22.20
2021,08,05,10,42,22.20
2021,08,05,10,43,22.20
2021,08,05,10,44,22.20
2021,08,05,10,45,22.20
2021,08,05,10,46,22.20
2021,08,05,10,47,22.30
2021,08,05,10,48,22.30
2021,08,05,10,49,22.30
2021,08,05,10,50,22.30
2021,08,05,10,51,22.40
2021,08,05,10,52,22.40
2021,08,05,10,53,22.50
2021,08,05,10,54,22.60
2021,08,05,10,55,22.70
2021,08,05,10,56,22.70
2021,08,05,10,57,22.80
2021,08,05,10,58,22.80
2021,08,05,10,59,22.90
2021,08,05,11,00,22.90
2021,08,05,11,01,22.90
2021,08,05,11,02,22.90
2021,08,05,11,03,22.90
2021,08,05,11,04,22.90
2021,08,05,11,05,22.90
2021,08,05,11,06,22.90
2021,08,05,11,07,22.90
2021,08,05,11,08,22.90
2021,08,05,11,09,22.90
2021,08,05,11,10,22.90
2021,08,05,11,11,22.90
2021,08,05,11,12,22.90
2021,08,05,11,13,22.90
2021,08,05,11,14,22.90
2021,08,05,11,15,22.90
2021,08,05,11,16,23.00
2021,08,05,11,17,23.10
2021,08,05,11,18,23.10
2021,08,05,11,19,23.10
2021,08,05,11,20,23.20
2021,08,05,11,21,23.20
2021,08,05,11,22,23.30
2021,08,05,11,23,23.30
2021,08,05,11,24,23.30
2021,08,05,11,25,23.40
2021,08,05,11,26,23.40
2021,08,05,11,27,23.50
2021,08,05,11,28,23.50
2021,08,05,11,29,23.60
2021,08,05,11,30,23.60
2021,08,05,11,31,23.70
2021,08,05,11,32,23.70
2021,08,05,11,33,23.70
2021,08,05,11,34,23.70
2021,08,05,11,35,23.70
2021,08,05,11,36,23.80
2021,08,05,11,37,23.80
2021,08,05,11,38,23.80
2021,08,05,11,39,23.90
2021,08,05,11,40,23.90
2021,08,05,11,41,23.90
2021,08,05,11,42,23.90
2021,08,05,11,43,24.00
2021,08,05,11,44,24.00
2021,08,05,11,45,24.10
2021,08,05,11,46,24.10
2021,08,05,11,47,24.10
2021,08,05,11,48,24.10
2021,08,05,11,49,24.10
2021,08,05,11,50,24.10
2021,08,05,11,51,24.20
2021,08,05,11,52,24.20
2021,08,05,11,53,24.10
2021,08,05,11,54,24.10
2021,08,05,11,55,24.00
2021,08,05,11,56,24.00
2021,08,05,11,57,24.00
2021,08,05,11,58,24.10
2021,08,05,11,59,24.10
2021,08,05,12,00,24.10
2021,08,05,12,01,24.10
2021,08,05,12,02,24.10
2021,08,05,12,03,24.10
2021,08,05,12,04,24.10
2021,08,05,12,05,24.10
2021,08,05,12,06,24.00
2021,08,05,12,07,23.90
2021,08,05,12,08,23.90
2021,08,05,12,09,23.90
2021,08,05,12,10,23.80
2021,08,05,12,11,23.80
2021,08,05,12,12,23.80
2021,08,05,12,13,23.70
2021,08,05,12,14,23.80
2021,08,05,12,15,23.80
2021,08,05,12,16,23.80
2021,08,05,12,17,23.80
2021,08,05,12,18,23.80
2021,08,05,12,19,23.80
2021,08,05,12,20,23.80
2021,08,05,12,21,23.80
2021,08,05,12,22,23.80
2021,08,05,12,23,23.80
2021,08,05,12,24,23.80
2021,08,05,12,25,23.80
2021,08,05,12,26,23.70
2021,08,05,12,27,23.70
2021,08,05,12,28,23.70
2021,08,05,12,29,23.70
2021,08,05,12,30,23.70
2021,08,05,12,31,23.80
2021,08,05,12,32,23.80
2021,08,05,12,33,23.80
2021,08,05,12,34,23.80
2021,08,05,12,35,23.80
2021,08,05,12,36,23.90
2021,08,05,12,37,23.90
2021,08,05,12,38,23.90
2021,08,05,12,39,23.80
2021,08,05,12,40,23.80
2021,08,05,12,41,23.80
2021,08,05,12,42,23.80
2021,08,05,12,43,23.70
2021,08,05,12,44,23.70
2021,08,05,12,45,23.70
2021,08,05,12,46,23.80
2021,08,05,12,47,23.80
2021,08,05,12,48,23.80
2021,08,05,12,49,23.90
2021,08,05,12,50,23.90
2021,08,05,12,51,24.00
2021,08,05,12,52,24.10
2021,08,05,12,53,24.20
2021,08,05,12,54,24.30
2021,08,05,12,55,24.30
2021,08,05,12,56,24.30
2021,08,05,12,57,24.30
2021,08,05,12,58,24.30
2021,08,05,12,59,24.20
2021,08,05,13,00,24.20
2021,08,05,13,01,24.20
2021,08,05,13,02,24.20
2021,08,05,13,03,24.30
2021,08,05,13,04,24.30
2021,08,05,13,05,24.30
2021,08,05,13,06,24.30
2021,08,05,13,07,24.30
2021,08,05,13,08,24.30
2021,08,05,13,09,24.30
2021,08,05,13,10,24.30
2021,08,05,13,11,24.40
2021,08,05,13,12,24.40
2021,08,05,13,13,24.50
2021,08,05,13,14,24.50
2021,08,05,13,15,24.60
2021,08,05,13,16,24.60
2021,08,05,13,17,24.60
2021,08,05,13,18,24.70
2021,08,05,13,19,24.70
2021,08,05,13,20,24.70
2021,08,05,13,21,24.70
2021,08,05,13,22,24.70
2021,08,05,13,23,24.70
2021,08,05,13,24,24.70
2021,08,05,13,25,24.80
2021,08,05,13,26,24.80
2021,08,05,13,27,24.80
2021,08,05,13,28,24.70
2021,08,05,13,29,24.70
2021,08,05,13,30,24.60
2021,08,05,13,31,24.60
2021,08,05,13,32,24.70
2021,08,05,13,33,24.60
2021,08,05,13,34,24.60
2021,08,05,13,35,24.50
2021,08,05,13,36,24.50
2021,08,05,13,37,24.40
2021,08,05,13,38,24.40
2021,08,05,13,39,24.30
2021,08,05,13,40,24.20
2021,08,05,13,41,24.20
2021,08,05,13,42,24.20
2021,08,05,13,43,24.20
2021,08,05,13,44,24.30
2021,08,05,13,45,24.30
2021,08,05,13,46,24.50
2021,08,05,13,47,24.50
2021,08,05,13,48,24.60
2021,08,05,13,49,24.60
2021,08,05,13,50,24.60
2021,08,05,13,51,24.70
2021,08,05,13,52,24.80
2021,08,05,13,53,24.80
2021,08,05,13,54,24.80
2021,08,05,13,55,24.90
2021,08,05,13,56,24.90
2021,08,05,13,57,24.90
2021,08,05,13,58,25.00
2021,08,05,13,59,25.10
2021,08,05,14,00,25.20
2021,08,05,14,01,25.20
2021,08,05,14,02,25.30
2021,08,05,14,03,25.20
2021,08,05,14,04,25.20
2021,08,05,14,05,25.20
2021,08,05,14,06,25.20
2021,08,05,14,07,25.10
2021,08,05,14,08,25.10
2021,08,05,14,09,25.10
2021,08,05,14,10,25.10
2021,08,05,14,11,25.10
2021,08,05,14,12,25.10
2021,08,05,14,13,25.10
2021,08,05,14,14,25.10
2021,08,05,14,15,25.10
2021,08,05,14,16,25.20
2021,08,05,14,17,25.20
2021,08,05,14,18,25.30
2021,08,05,14,19,25.40
2021,08,05,14,20,25.40
2021,08,05,14,21,25.40
2021,08,05,14,22,25.40
2021,08,05,14,23,25.30
2021,08,05,14,24,25.30
2021,08,05,14,25,25.20
2021,08,05,14,26,25.30
2021,08,05,14,27,25.30
2021,08,05,14,28,25.30
2021,08,05,14,29,25.30
2021,08,05,14,30,25.30
2021,08,05,14,31,25.30
2021,08,05,14,32,25.20
2021,08,05,14,33,25.20
2021,08,05,14,34,25.10
2021,08,05,14,35,25.00
2021,08,05,14,36,25.00
2021,08,05,14,37,25.00
2021,08,05,14,38,24.90
2021,08,05,14,39,24.90
2021,08,05,14,40,24.90
2021,08,05,14,41,24.90
2021,08,05,14,42,24.90
2021,08,05,14,43,25.00
2021,08,05,14,44,25.00
2021,08,05,14,45,25.00
2021,08,05,14,46,25.00
2021,08,05,14,47,24.90
2021,08,05,14,48,24.80
2021,08,05,14,49,24.80
2021,08,05,14,50,24.80
2021,08,05,14,51,24.70
2021,08,05,14,52,24.80
2021,08,05,14,53,24.80
2021,08,05,14,54,24.80
2021,08,05,14,55,24.80
2021,08,05,14,56,24.80
2021,08,05,14,57,24.70
2021,08,05,14,58,24.80
2021,08,05,14,59,24.80
2021,08,05,15,00,24.80
2021,08,05,15,01,24.80
2021,08,05,15,02,24.80
2021,08,05,15,03,24.80
2021,08,05,15,04,24.80
2021,08,05,15,05,24.80
2021,08,05,15,06,24.80
2021,08,05,15,07,24.70
2021,08,05,15,08,24.70
2021,08,05,15,09,24.70
2021,08,05,15,10,24.60
2021,08,05,15,11,24.60
2021,08,05,15,12,24.60
2021,08,05,15,13,24.60
2021,08,05,15,14,24.60
2021,08,05,15,15,24.60
2021,08,05,15,16,24.60
2021,08,05,15,17,24.60
2021,08,05,15,18,24.60
2021,08,05,15,19,24.60
2021,08,05,15,20,24.60
2021,08,05,15,21,24.60
2021,08,05,15,22,24.60
2021,08,05,15,23,24.70
2021,08,05,15,24,24.70
2021,08,05,15,25,24.70
2021,08,05,15,26,24.70
2021,08,05,15,27,24.70
2021,08,05,15,28,24.70
2021,08,05,15,29,24.70
2021,08,05,15,30,24.70
2021,08,05,15,31,24.60
2021,08,05,15,32,24.70
2021,08,05,15,33,24.70
2021,08,05,15,34,24.70
2021,08,05,15,35,24.70
2021,08,05,15,36,24.80
2021,08,05,15,37,24.80
2021,08,05,15,38,24.80
2021,08,05,15,39,24.90
2021,08,05,15,40,24.90
2021,08,05,15,41,25.00
2021,08,05,15,42,25.00
2021,08,05,15,43,25.00
2021,08,05,15,44,24.90
2021,08,05,15,45,25.00
2021,08,05,15,46,25.00
2021,08,05,15,47,25.00
2021,08,05,15,48,25.00
2021,08,05,15,49,25.00
2021,08,05,15,50,24.90
2021,08,05,15,51,24.90
2021,08,05,15,52,24.80
2021,08,05,15,53,24.80
2021,08,05,15,54,24.80
2021,08,05,15,55,24.70
2021,08,05,15,56,24.70
2021,08,05,15,57,24.80
2021,08,05,15,58,24.80
2021,08,05,15,59,24.70
2021,08,05,16,00,24.70
2021,08,05,16,01,24.70
2021,08,05,16,02,24.60
2021,08,05,16,03,24.60
2021,08,05,16,04,24.60
2021,08,05,16,05,24.50
2021,08,05,16,06,24.50
2021,08,05,16,07,24.60
2021,08,05,16,08,24.50
2021,08,05,16,09,24.50
2021,08,05,16,10,24.50
2021,08,05,16,11,24.50
2021,08,05,16,12,24.50
2021,08,05,16,13,24.50
2021,08,05,16,14,24.50
2021,08,05,16,15,24.50
2021,08,05,16,16,24.40
2021,08,05,16,17,24.40
2021,08,05,16,18,24.40
2021,08,05,16,19,24.40
2021,08,05,16,20,24.40
2021,08,05,16,21,24.50
2021,08,05,16,22,24.50
2021,08,05,16,23,24.50
2021,08,05,16,24,24.60
2021,08,05,16,25,24.60
2021,08,05,16,26,24.60
2021,08,05,16,27,24.60
2021,08,05,16,28,24.60
2021,08,05,16,29,24.60
2021,08,05,16,30,24.60
2021,08,05,16,31,24.60
2021,08,05,16,32,24.60
2021,08,05,16,33,24.60
2021,08,05,16,34,24.60
2021,08,05,16,35,24.60
2021,08,05,16,36,24.70
2021,08,05,16,37,24.70
2021,08,05,16,38,24.70
2021,08,05,16,39,24.70
2021,08,05,16,40,24.60
2021,08,05,16,41,24.60
2021,08,05,16,42,24.60
2021,08,05,16,43,24.60
2021,08,05,16,44,24.60
2021,08,05,16,45,24.50
2021,08,05,16,46,24.40
2021,08,05,16,47,24.30
2021,08,05,16,48,24.30
2021,08,05,16,49,24.30
2021,08,05,16,50,24.30
2021,08,05,16,51,24.30
2021,08,05,16,52,24.30
2021,08,05,16,53,24.30
2021,08,05,16,54,24.20
2021,08,05,16,55,24.20
2021,08,05,16,56,24.20
2021,08,05,16,57,24.10
2021,08,05,16,58,24.10
2021,08,05,16,59,24.00
2021,08,05,17,00,24.00
2021,08,05,17,01,24.00
2021,08,05,17,02,24.00
2021,08,05,17,03,24.00
2021,08,05,17,04,23.90
2021,08,05,17,05,23.90
2021,08,05,17,06,23.90
2021,08,05,17,07,23.90
2021,08,05,17,08,23.90
2021,08,05,17,09,23.90
2021,08,05,17,10,23.80
2021,08,05,17,11,23.80
2021,08,05,17,12,23.80
2021,08,05,17,13,23.80
2021,08,05,17,14,23.80
2021,08,05,17,15,23.70
2021,08,05,17,16,23.70
2021,08,05,17,17,23.70
2021,08,05,17,18,23.70
2021,08,05,17,19,23.70